Nassau, Bahamas

1:02 AM EDT on April 28, 2017 (GMT -0400)
Nassau International

Weather History for MYNN - November, 2012

Change the Weather History Date:

Wednesday, November 28, 2012

  Actual Average Record
Temperature  
Mean Temperature 72 °F -  
Max Temperature 80 °F 79 °F 84 °F (2003)
Min Temperature 64 °F 64 °F 55 °F (2008)
Cooling Degree Days 7    
Growing Degree Days 22 (Base 50)    
Moisture  
Dew Point 65 °F    
Average Humidity 76    
Maximum Humidity 94    
Minimum Humidity 59    
Precipitation  
Precipitation 0.00 in 0.07 in - ()
Sea Level Pressure  
Sea Level Pressure 30.12 in    
Wind  
Wind Speed 4 mph ()    
Max Wind Speed 12 mph    
Max Gust Speed -    
Visibility 6.7 miles    
Events      
Averages and records for this station are not official NWS values.
T = Trace of Precipitation, MM = Missing Value Source: Averaged Metar Reports

Daily Weather History Graph

Daily Weather History Graph

Search for Another Location

Airport or City:

Trip Planner

Search our weather history database for the weather conditions in past years. The results will help you decide how hot, cold, wet, or windy it might be!

Date:

Astronomy

Nov. 28, 2012 Rise Set
Actual Time 6:36 AM EST 5:19 PM EST
Civil Twilight 6:11 AM EST 5:44 PM EST
Nautical Twilight 5:43 AM EST 6:12 PM EST
Astronomical Twilight 5:15 AM EST 6:40 PM EST
Moon 5:33 PM EST 6:32 AM EST
Length of Visible Light 11h 32m
Length of Day
10h 43m
Full, 100% of the Moon is Illuminated
Nov 28
Full
Dec 6
Last Quarter
Dec 13
New
Dec 20
First Quarter
Dec 28
Full

Hourly Weather History & Observations

Time (EST) Temp. Heat Index Dew Point Humidity Pressure Visibility Wind Dir Wind Speed Gust Speed Precip Events Conditions
1:00 AM 68 °F - 66 °F 91% 30.13 in 9 mi Calm Calm - -   Partly Cloudy
1:00 AM 68.0 °F - 66.2 °F 94% 30.13 in 6.2 mi Calm Calm - N/A   Mostly Cloudy
2:00 AM 66.2 °F - 59.0 °F 78% 30.11 in 6.2 mi Calm Calm - N/A   Mostly Cloudy
3:00 AM 64.4 °F - 60.8 °F 88% 30.09 in 6.2 mi Calm Calm - N/A   Mostly Cloudy
4:00 AM 66.2 °F - 62.6 °F 88% 30.10 in 6.2 mi Calm Calm - N/A   Mostly Cloudy
5:00 AM 68.0 °F - 60.8 °F 78% 30.09 in 6.2 mi Calm Calm - N/A   Mostly Cloudy
6:00 AM 66.2 °F - 60.8 °F 83% 30.11 in 6.2 mi Calm Calm - N/A   Mostly Cloudy
7:00 AM 65 °F - 63 °F 92% 30.13 in 8 mi Calm Calm - -   Partly Cloudy
7:00 AM 66.2 °F - 60.8 °F 83% 30.13 in 6.2 mi Calm Calm - N/A   Mostly Cloudy
8:00 AM 69.8 °F - 66.2 °F 88% 30.13 in 6.2 mi Calm Calm - N/A   Mostly Cloudy
9:00 AM 75.2 °F - 66.2 °F 73% 30.14 in 6.2 mi WNW 5.8 mph - N/A   Mostly Cloudy
10:00 AM 80 °F - 71 °F 67% 30.16 in 9 mi NW 8.1 mph - -   Partly Cloudy
10:00 AM 80.6 °F 84.6 °F 71.6 °F 74% 30.15 in 6.2 mi NW 8.1 mph - N/A   Mostly Cloudy
11:00 AM 77.0 °F - 68.0 °F 74% 30.14 in 6.2 mi WNW 10.4 mph - N/A   Mostly Cloudy
12:00 PM 75.2 °F - 66.2 °F 73% 30.14 in 6.2 mi WNW 10.4 mph - N/A   Mostly Cloudy
1:00 PM 78 °F - 66 °F 59% 30.11 in 9 mi NW 9.2 mph - -   Scattered Clouds
1:00 PM 77.0 °F - 66.2 °F 69% 30.10 in 6.2 mi NW 9.2 mph - N/A   Mostly Cloudy
2:00 PM 77.0 °F - 66.2 °F 69% 30.09 in 6.2 mi WNW 11.5 mph - N/A   Mostly Cloudy
3:00 PM 75.2 °F - 66.2 °F 73% 30.09 in 6.2 mi WNW 11.5 mph - N/A   Mostly Cloudy
4:00 PM 78 °F - 69 °F 66% 30.10 in 8 mi NW 9.2 mph - -   Partly Cloudy
4:00 PM 77.0 °F - 68.0 °F 74% 30.10 in 6.2 mi NW 9.2 mph - N/A   Mostly Cloudy
5:00 PM 75.2 °F - 66.2 °F 73% 30.10 in 6.2 mi NNW 6.9 mph - N/A   Mostly Cloudy
6:00 PM 75.2 °F - 66.2 °F 73% 30.11 in 6.2 mi NNW 6.9 mph - N/A   Mostly Cloudy
7:00 PM 75 °F - 66 °F 68% 30.13 in 8 mi North 11.5 mph - -   Partly Cloudy
7:00 PM 75.2 °F - 66.2 °F 73% 30.12 in 6.2 mi North 11.5 mph - N/A   Mostly Cloudy
8:00 PM 73.4 °F - 64.4 °F 73% 30.14 in 6.2 mi North 9.2 mph - N/A   Scattered Clouds
9:00 PM 73.4 °F - 66.2 °F 78% 30.15 in 6.2 mi North 9.2 mph - N/A   Scattered Clouds
10:00 PM 75 °F - 67 °F 68% 30.15 in 8 mi North 9.2 mph - -   Partly Cloudy
10:00 PM 75.2 °F - 66.2 °F 73% 30.15 in 6.2 mi North 9.2 mph - N/A   Scattered Clouds
11:00 PM 73.4 °F - 64.4 °F 73% 30.14 in 6.2 mi North 8.1 mph - N/A   Scattered Clouds